This demonstration page uses our WeatherBlox Daily Observations layout. Learn more.

39.29038, -76.61219

Hourly Observations for October 24, 2019

Temp ( °F °C ) Dew Point ( °F °C ) Humidity (%) Winds ( mph kmh ) Pressure ( in mb ) Visibility ( mi km ) Precip ( " mm )
12:54 am 00:54 undefined 57 13.9 32 0 39 39 undefined N/A 30.22 1023 N/A 0 0
1:54 am 01:54 undefined 54 12.2 34 1.1 47 47 undefined N/A 30.23 1024 N/A 0 0
2:54 am 02:54 undefined 50 10 38 3.3 63 63 undefined N/A 30.24 1024 N/A 0 0
3:54 am 03:54 undefined 49 9.4 37 2.8 64 64 undefined N/A 30.25 1024 N/A 0 0
4:54 am 04:54 undefined 48 8.9 37 2.8 66 66 undefined N/A 30.27 1025 N/A 0 0
5:54 am 05:54 undefined 48 8.9 38 3.3 68 68 undefined N/A 30.3 1026 N/A 0 0
6:54 am 06:54 undefined 47 8.3 38 3.3 71 71 undefined N/A 30.32 1027 N/A 0 0
7:54 am 07:54 undefined 49 9.4 39 3.9 69 69 undefined N/A 30.33 1027 N/A 0 0
8:54 am 08:54 undefined 53 11.7 40 4.4 61 61 undefined N/A 30.38 1029 N/A 0 0
9:54 am 09:54 undefined 57 13.9 40 4.4 53 53 undefined N/A 30.4 1030 N/A 0 0
10:54 am 10:54 undefined 63 17.2 42 5.6 47 47 undefined N/A 30.4 1029 N/A 0 0
11:54 am 11:54 undefined 63 17.2 42 5.6 47 47 undefined N/A 30.37 1029 N/A 0 0
12:54 pm 12:54 undefined 67 19.4 40 4.4 37 37 undefined N/A 30.34 1028 N/A 0 0
1:54 pm 13:54 undefined 67 19.4 40 4.4 37 37 undefined N/A 30.31 1026 N/A 0 0
2:54 pm 14:54 undefined 69 20.6 39 3.9 33 33 undefined N/A 30.29 1026 N/A 0 0
3:54 pm 15:54 undefined 66 18.9 40 4.4 39 39 undefined N/A 30.27 1025 N/A 0 0
4:54 pm 16:54 undefined 65 18.3 43 6.1 45 45 undefined N/A 30.25 1024 N/A 0 0
5:54 pm 17:54 undefined 64 17.8 46 7.8 52 52 undefined N/A 30.27 1025 N/A 0 0
6:54 pm 18:54 undefined 62 16.7 47 8.3 58 58 undefined N/A 30.27 1025 N/A 0 0
7:54 pm 19:54 undefined 61 16.1 47 8.3 60 60 undefined N/A 30.29 1026 N/A 0 0
8:54 pm 20:54 undefined 60 15.6 47 8.3 62 62 undefined N/A 30.3 1026 N/A 0 0
9:54 pm 21:54 undefined 58 14.4 48 8.9 70 70 undefined N/A 30.31 1026 N/A 0 0
10:54 pm 22:54 undefined 57 13.9 49 9.4 74 74 undefined N/A 30.32 1027 N/A 0 0
11:54 pm 23:54 undefined 56 13.3 49 9.4 77 77 undefined N/A 30.31 1026 N/A 0 0

Powered by AerisWeather